Weather History for Boscobel, WI

Change the Weather History Date:

Thursday, January 3, 2013

  Actual Average (KPDC) Record (KPDC)
Temperature  
Mean Temperature 17 °F -  
Max Temperature 26 °F 27 °F 53 °F (2007)
Min Temperature 8 °F 8 °F -20 °F (1979)
Degree Days  
Heating Degree Days 48    
Moisture  
Dew Point 14 °F    
Average Humidity 77    
Maximum Humidity 85    
Minimum Humidity 68    
Precipitation  
Precipitation 0.00 in - - ()
Sea Level Pressure  
Sea Level Pressure 30.23 in    
Wind  
Wind Speed 6 mph (WSW)    
Max Wind Speed 12 mph    
Max Gust Speed -    
Visibility 8 miles    
Events Snow    
Averages and records for this station are not official NWS values.
T = Trace of Precipitation, MM = Missing Value Source: NWS Daily Summary

Daily Weather History Graph

Daily Weather History Graph

Search for Another Location

Airport:

Trip Planner

Search our weather history database for the weather conditions in past years. The results will help you decide how hot, cold, wet, or windy it might be!

Date:

Astronomy

Jan. 03, 2013 Rise Set
Actual Time 7:34 AM CST 4:40 PM CST
Civil Twilight 7:02 AM CST 5:12 PM CST
Nautical Twilight 6:26 AM CST 5:48 PM CST
Astronomical Twilight 5:52 AM CST 6:22 PM CST
Moon 11:27 PM CST (1/3) 10:35 AM CST (1/3)
Length of Visible Light 10h 10m
Length of Day
9h 05m
Waning Gibbous, 65% of the Moon is Illuminated
Jan 3
Waning Gibbous
Jan 4
Last Quarter
Jan 11
New
Jan 18
First Quarter
Jan 26
Full

Hourly Weather History & Observations

Time (CST) Temp. Windchill Dew Point Humidity Pressure Visibility Wind Dir Wind Speed Gust Speed Precip Events Conditions
12:53 AM 23.0 °F 15.8 °F 18.0 °F 81% 30.11 in 6.0 mi SSW 5.8 mph - N/A   Haze
2:53 AM 24.1 °F 18.2 °F 19.9 °F 84% 30.13 in 5.0 mi SW 4.6 mph - N/A   Overcast
3:53 AM 25.0 °F 19.3 °F 21.0 °F 85% 30.13 in 6.0 mi WNW 4.6 mph - N/A   Overcast
4:53 AM 25.0 °F 20.7 °F 21.0 °F 85% 30.14 in 5.0 mi WNW 3.5 mph - N/A   Overcast
5:53 AM 25.0 °F 20.7 °F 21.0 °F 85% 30.15 in 6.0 mi NW 3.5 mph - N/A   Overcast
6:53 AM 26.1 °F 20.5 °F 21.0 °F 81% 30.18 in 6.0 mi West 4.6 mph - N/A   Haze
7:51 AM 24.8 °F 16.9 °F 19.4 °F 80% 30.17 in 7.0 mi West 6.9 mph - 0.00 in   Overcast
7:53 AM 24.1 °F 17.0 °F 19.0 °F 81% 30.21 in 7.0 mi West 5.8 mph - 0.00 in   Overcast
8:07 AM 24.8 °F 16.9 °F 19.4 °F 80% 30.18 in 2.0 mi West 6.9 mph - 0.00 in Snow Light Snow
8:24 AM 23.0 °F 15.8 °F 17.6 °F 80% 30.17 in 3.0 mi WSW 5.8 mph - 0.00 in Snow Light Snow
8:53 AM 23.0 °F 14.7 °F 17.1 °F 78% 30.23 in 4.0 mi West 6.9 mph - 0.00 in Snow Light Snow
9:53 AM 21.0 °F 11.4 °F 15.1 °F 78% 30.25 in 8.0 mi SW 8.1 mph - 0.00 in   Overcast
10:27 AM 21.2 °F 12.6 °F 15.8 °F 80% 30.23 in 9.0 mi WSW 6.9 mph - N/A   Overcast
10:53 AM 21.9 °F 13.4 °F 15.1 °F 75% 30.27 in 9.0 mi West 6.9 mph - N/A   Overcast
11:15 AM 21.2 °F 11.7 °F 15.8 °F 80% 30.23 in 9.0 mi West 8.1 mph - N/A   Overcast
11:51 AM 21.2 °F 11.7 °F 15.8 °F 80% 30.22 in 9.0 mi WSW 8.1 mph - N/A   Overcast
11:53 AM 21.9 °F 12.5 °F 15.1 °F 75% 30.26 in 9.0 mi WSW 8.1 mph - N/A   Overcast
12:53 PM 21.9 °F 13.4 °F 14.0 °F 72% 30.24 in 10.0 mi SW 6.9 mph - N/A   Mostly Cloudy
1:53 PM 24.1 °F 13.1 °F 15.1 °F 69% 30.25 in 10.0 mi WSW 11.5 mph - 0.00 in   Overcast
2:06 PM 24.8 °F 16.9 °F 15.8 °F 69% 30.22 in 10.0 mi West 6.9 mph - 0.00 in   Overcast
2:49 PM 23.0 °F 15.8 °F 14.0 °F 68% 30.22 in 10.0 mi West 5.8 mph - 0.00 in   Partly Cloudy
2:53 PM 23.0 °F 13.9 °F 14.0 °F 68% 30.26 in 10.0 mi West 8.1 mph - 0.00 in   Partly Cloudy
3:53 PM 21.9 °F 11.7 °F 12.9 °F 68% 30.28 in 10.0 mi WSW 9.2 mph - N/A   Clear
4:53 PM 19.0 °F 11.1 °F 10.9 °F 71% 30.29 in 10.0 mi WSW 5.8 mph - N/A   Clear
5:53 PM 17.1 °F 6.6 °F 10.0 °F 74% 30.31 in 10.0 mi SW 8.1 mph - N/A   Clear
6:53 PM 14.0 °F 0.5 °F 7.0 °F 74% 30.32 in 10.0 mi WSW 11.5 mph - N/A   Clear
7:53 PM 12.0 °F 0.5 °F 5.0 °F 73% 30.33 in 10.0 mi SW 8.1 mph - N/A   Clear
8:53 PM 10.0 °F -0.9 °F 3.0 °F 73% 30.32 in 10.0 mi SW 6.9 mph - N/A   Clear
9:53 PM 9.0 °F -3.2 °F 3.0 °F 77% 30.31 in 10.0 mi SSW 8.1 mph - N/A   Clear
10:53 PM 8.1 °F -2.0 °F 3.0 °F 80% 30.30 in 10.0 mi SSW 5.8 mph - N/A   Clear
11:53 PM 8.1 °F -2.0 °F 3.9 °F 83% 30.28 in 10.0 mi SW 5.8 mph - N/A   Clear